sat.trackr.live / text

‹ back to catalog

STARLINK-3769

NORAD 52300 · 2022-041AR

PAYLOAD ACTIVE UNKNOWN

§ Identity

Operator
Country
US
Launch date
2022-04-21
Launch site
AFETR
Launch vehicle
Mass (kg)
RCS (m²)

Purposes: comms

External: N2YO · Heavens-Above · Gunter

§ Orbital elements

Epoch: 2026-05-25T02:22:06.222432Z

Period
95.44 min
Inclination
53.2124°
Eccentricity
0.0001028
Mean motion
15.08840715 rev/d
Perigee alt
539.0 km
Apogee alt
540.5 km
Semi-major
6,917.9 km
B*
1.5150e-4
RAAN
116.1056°
Arg perigee
47.7477°
Mean anomaly
312.3602°
Rev number
22,726

§ Raw data

STARLINK-37691 52300U 22041AR  26145.09868313  .00002124  00000+0  15150-3 0  99982 52300  53.2124 116.1056 0001028  47.7477 312.3602 15.08840715227261

JSON: /api/v1/satellites/52300 · /tle

For live sub-satellite position, see the globe view (requires WebGL).

§ Visibility from observer

Set your observer location to see the next 7 days of passes ≥ 10°. The values pass through the URL so the page stays shareable.

No JS? Fill the form by hand. The geolocation button needs JavaScript.